TimeGMT,TemperatureF,Dew PointF,Humidity,Sea Level PressureIn,VisibilityMPH,Wind Direction,Wind SpeedMPH,Gust SpeedMPH,PrecipitationIn,Events,Conditions,WindDirDegrees,DateUTC
12:00 AM,39,34,74,29.75,19,NW,22.4,,,,Partly Cloudy,310,2013-02-06 00:00:00
12:00 AM,39.2,33.8,81,29.71,6.2,NW,24.2,38.0,N/A,,Partly Cloudy,310,2013-02-06 00:00:00
12:30 AM,39.2,33.8,81,29.74,6.2,NW,20.7,-,N/A,,Partly Cloudy,310,2013-02-06 00:30:00
1:00 AM,39.2,32.0,75,29.77,6.2,NW,20.7,-,N/A,,Partly Cloudy,310,2013-02-06 01:00:00
1:30 AM,39.2,32.0,75,29.77,6.2,NW,18.4,-,N/A,,Partly Cloudy,310,2013-02-06 01:30:00
2:00 AM,39.2,32.0,75,29.80,6.2,NW,18.4,-,N/A,,Scattered Clouds,320,2013-02-06 02:00:00
2:30 AM,37.4,32.0,81,29.80,6.2,NW,19.6,-,N/A,,Scattered Clouds,320,2013-02-06 02:30:00
3:00 AM,37.4,32.0,81,29.83,6.2,NW,16.1,-,N/A,,Scattered Clouds,310,2013-02-06 03:00:00
3:30 AM,37.4,32.0,81,29.86,6.2,NW,20.7,-,N/A,,Scattered Clouds,320,2013-02-06 03:30:00
4:00 AM,37.4,30.2,75,29.86,6.2,NW,19.6,-,N/A,,Scattered Clouds,320,2013-02-06 04:00:00
4:30 AM,37.4,30.2,75,29.89,6.2,NW,19.6,-,N/A,,Scattered Clouds,320,2013-02-06 04:30:00
5:30 AM,37.4,30.2,75,29.92,6.2,NW,17.3,-,N/A,,Partly Cloudy,320,2013-02-06 05:30:00
6:00 AM,36,30,72,29.97,19,NW,17.9,,,,Scattered Clouds,310,2013-02-06 06:00:00
6:00 AM,35.6,30.2,81,29.95,6.2,NW,18.4,-,N/A,,Partly Cloudy,310,2013-02-06 06:00:00
6:30 AM,37.4,30.2,75,29.95,6.2,NW,16.1,-,N/A,,Partly Cloudy,320,2013-02-06 06:30:00
7:00 AM,35.6,30.2,81,29.98,6.2,NW,15.0,-,N/A,,Partly Cloudy,310,2013-02-06 07:00:00
7:30 AM,35.6,30.2,81,30.01,6.2,NW,15.0,-,N/A,,Partly Cloudy,310,2013-02-06 07:30:00
8:00 AM,35.6,30.2,81,30.04,6.2,NW,12.7,-,N/A,,Partly Cloudy,310,2013-02-06 08:00:00
8:30 AM,35.6,30.2,81,30.04,6.2,WNW,10.4,-,N/A,,Partly Cloudy,300,2013-02-06 08:30:00
9:00 AM,35.6,30.2,81,30.06,6.2,WNW,9.2,-,N/A,,Partly Cloudy,300,2013-02-06 09:00:00
9:30 AM,37.4,30.2,75,30.09,6.2,WNW,12.7,-,N/A,,Partly Cloudy,290,2013-02-06 09:30:00
10:00 AM,37.4,30.2,75,30.09,6.2,NW,17.3,28.8,N/A,,Partly Cloudy,310,2013-02-06 10:00:00
10:30 AM,39.2,32.0,75,30.09,6.2,NW,13.8,-,N/A,,Partly Cloudy,320,2013-02-06 10:30:00
11:00 AM,41.0,32.0,70,30.12,6.2,NW,19.6,-,N/A,,Partly Cloudy,320,2013-02-06 11:00:00
11:30 AM,41.0,32.0,70,30.12,6.2,NW,18.4,-,N/A,,Partly Cloudy,320,2013-02-06 11:30:00
12:00 PM,42,31,54,30.15,25,NW,22.4,,,,Scattered Clouds,320,2013-02-06 12:00:00
12:00 PM,41.0,32.0,70,30.12,6.2,NW,21.9,33.4,N/A,,Partly Cloudy,320,2013-02-06 12:00:00
12:30 PM,42.8,32.0,66,30.12,6.2,NNW,24.2,-,N/A,,Partly Cloudy,330,2013-02-06 12:30:00
1:00 PM,41.0,32.0,70,30.15,6.2,NNW,21.9,33.4,N/A,,Scattered Clouds,330,2013-02-06 13:00:00
1:30 PM,41.0,30.2,65,30.15,6.2,NNW,23.0,34.5,N/A,,Scattered Clouds,330,2013-02-06 13:30:00
2:00 PM,42.8,32.0,66,30.15,6.2,NW,24.2,-,N/A,,Partly Cloudy,320,2013-02-06 14:00:00
2:30 PM,42.8,28.4,57,30.15,6.2,NNW,21.9,-,N/A,,Partly Cloudy,330,2013-02-06 14:30:00
3:00 PM,42.8,30.2,61,30.15,6.2,NNW,18.4,32.2,N/A,,Partly Cloudy,330,2013-02-06 15:00:00
3:30 PM,42.8,30.2,61,30.15,6.2,NNW,12.7,-,N/A,,Partly Cloudy,330,2013-02-06 15:30:00
4:00 PM,42.8,28.4,57,30.18,6.2,NNW,15.0,-,N/A,,Partly Cloudy,330,2013-02-06 16:00:00
4:30 PM,41.0,30.2,65,30.18,6.2,NNW,13.8,-,N/A,,Partly Cloudy,340,2013-02-06 16:30:00
5:30 PM,37.4,28.4,70,30.21,6.2,NW,11.5,-,N/A,,Partly Cloudy,310,2013-02-06 17:30:00
6:00 PM,35,28,68,30.25,19,WNW,4.5,,,,Scattered Clouds,290,2013-02-06 18:00:00
6:00 PM,35.6,28.4,75,30.21,6.2,NW,4.6,-,N/A,,Partly Cloudy,310,2013-02-06 18:00:00
6:30 PM,35.6,30.2,81,30.24,6.2,WSW,8.1,-,N/A,,Partly Cloudy,240,2013-02-06 18:30:00
7:00 PM,35.6,30.2,81,30.24,6.2,WNW,12.7,-,N/A,,Partly Cloudy,300,2013-02-06 19:00:00
7:30 PM,35.6,30.2,81,30.24,6.2,NW,11.5,-,N/A,,Partly Cloudy,310,2013-02-06 19:30:00
8:00 PM,33.8,30.2,87,30.24,6.2,WNW,8.1,-,N/A,,Partly Cloudy,290,2013-02-06 20:00:00
8:30 PM,32.0,30.2,93,30.24,6.2,West,6.9,-,N/A,,Partly Cloudy,260,2013-02-06 20:30:00
9:00 PM,33.8,30.2,87,30.24,6.2,WNW,13.8,-,N/A,,Partly Cloudy,300,2013-02-06 21:00:00
9:30 PM,32.0,30.2,93,30.24,6.2,WNW,9.2,-,N/A,,Partly Cloudy,290,2013-02-06 21:30:00
10:00 PM,33.8,30.2,87,30.27,6.2,West,8.1,-,N/A,,Partly Cloudy,260,2013-02-06 22:00:00
10:30 PM,32.0,30.2,93,30.24,6.2,West,9.2,-,N/A,,Partly Cloudy,280,2013-02-06 22:30:00
11:00 PM,32.0,28.4,87,30.24,6.2,West,10.4,-,N/A,,Scattered Clouds,280,2013-02-06 23:00:00
11:30 PM,32.0,30.2,93,30.24,6.2,West,9.2,-,N/A,,Scattered Clouds,270,2013-02-06 23:30:00